Weather History for Watsonville, CA

Change the Weather History Date:

Saturday, October 9, 2010

  Actual Average Record
Temperature  
Mean Temperature 65 °F 61 °F  
Max Temperature 80 °F 73 °F 90 °F (1999)
Min Temperature 50 °F 49 °F 47 °F (2009)
Degree Days  
Heating Degree Days 0    
Month to date heating degree days 33  
Since 1 July heating degree days 365  
Cooling Degree Days 0    
Month to date cooling degree days 0  
Year to date cooling degree days 111  
Growing Degree Days 14 (Base 50)    
Moisture  
Dew Point 50 °F    
Average Humidity 61    
Maximum Humidity 89    
Minimum Humidity 32    
Precipitation  
Precipitation 0.00 in - 0.08 in (2000)
Month to date precipitation T  
Year to date precipitation 11.73  
Since 1 July precipitation 0.01  
Sea Level Pressure  
Sea Level Pressure 30.20 in    
Wind  
Wind Speed 3 mph (SW)    
Max Wind Speed 13 mph    
Max Gust Speed 155 mph    
Visibility 10 miles    
Events      
T = Trace of Precipitation, MM = Missing Value Source: NWS Daily Summary

Daily Weather History Graph

Daily Weather History Graph

Search for Another Location

Airport:

Trip Planner

Search our weather history database for the weather conditions in past years. The results will help you decide how hot, cold, wet, or windy it might be!

Date:

Astronomy

Oct. 09, 2010 Rise Set
Actual Time 7:09 AM PDT 6:38 PM PDT
Civil Twilight 6:43 AM PDT 7:04 PM PDT
Nautical Twilight 6:13 AM PDT 7:34 PM PDT
Astronomical Twilight 5:43 AM PDT 8:04 PM PDT
Moon 9:30 AM PDT (10/9) 7:44 PM PDT (10/9)
Length of Visible Light 12h 21m
Length of Day
11h 29m
Waxing Crescent, 6% of the Moon is Illuminated
Oct 9
Waxing Crescent
Oct 14
First Quarter
Oct 22
Full
Oct 30
Last Quarter
Nov 5
New

Hourly Weather History & Observations

Time (PDT) Temp. Dew Point Humidity Pressure Visibility Wind Dir Wind Speed Gust Speed Precip Events Conditions
12:53 AM 53.1 °F 48.9 °F 86% 30.20 in 10.0 mi Calm Calm - N/A   Clear
1:53 AM 53.1 °F 48.9 °F 86% 30.21 in 10.0 mi NW 4.6 mph - N/A   Clear
2:53 AM 52.0 °F 48.0 °F 86% 30.22 in 10.0 mi WNW 3.5 mph - N/A   Clear
3:53 AM 51.1 °F 48.0 °F 89% 30.22 in 10.0 mi NW 3.5 mph - N/A   Clear
4:53 AM 51.1 °F 48.0 °F 89% 30.22 in 10.0 mi NW 3.5 mph - N/A   Clear
5:53 AM 52.0 °F 48.0 °F 86% 30.23 in 10.0 mi Calm Calm - N/A   Clear
6:53 AM 50.0 °F 46.0 °F 86% 30.23 in 10.0 mi Calm Calm - N/A   Clear
7:53 AM 52.0 °F 48.0 °F 86% 30.23 in 10.0 mi Calm Calm - N/A   Clear
8:53 AM 57.9 °F 50.0 °F 75% 30.25 in 10.0 mi Calm Calm - N/A   Clear
9:53 AM 64.0 °F 50.0 °F 60% 30.25 in 10.0 mi Calm Calm - N/A   Clear
10:53 AM 70.0 °F 50.0 °F 49% 30.26 in 10.0 mi SE 4.6 mph - N/A   Clear
11:53 AM 75.0 °F 51.1 °F 43% 30.24 in 10.0 mi SSE 4.6 mph - N/A   Clear
12:53 PM 78.1 °F 46.9 °F 33% 30.21 in 10.0 mi South 9.2 mph - N/A   Clear
1:53 PM 79.0 °F 48.0 °F 34% 30.19 in 10.0 mi SW 5.8 mph - N/A   Clear
2:53 PM 77.0 °F 46.9 °F 34% 30.17 in 10.0 mi West 8.1 mph - N/A   Clear
3:53 PM 78.1 °F 46.0 °F 32% 30.16 in 10.0 mi Variable 4.6 mph - N/A   Clear
4:53 PM 77.0 °F 51.1 °F 40% 30.15 in 10.0 mi SSE 6.9 mph - N/A   Clear
5:53 PM 69.1 °F 55.0 °F 61% 30.15 in 10.0 mi South 6.9 mph - N/A   Clear
6:53 PM 63.0 °F 53.1 °F 70% 30.15 in 10.0 mi SSW 3.5 mph - N/A   Clear
7:53 PM 60.1 °F 53.1 °F 78% 30.16 in 10.0 mi South 4.6 mph - N/A   Clear
8:53 PM 61.0 °F 54.0 °F 78% 30.17 in 10.0 mi North - - N/A   Clear
9:53 PM 60.1 °F 53.1 °F 78% 30.18 in 10.0 mi Calm Calm - N/A   Clear
10:53 PM 57.9 °F 52.0 °F 81% 30.18 in 10.0 mi Calm Calm - N/A   Clear
11:53 PM 57.9 °F 51.1 °F 78% 30.17 in 10.0 mi NW 3.5 mph - N/A   Clear